Corning, AR

2:45 AM CST on February 21, 2017 (GMT -0600)
Corning

Weather History for K4M9 - December, 2012

Change the Weather History Date:

Sunday, December 16, 2012

  Actual Average (KARG) Record (KARG)
Temperature  
Mean Temperature 52 °F -  
Max Temperature 59 °F 44 °F 66 °F (2006)
Min Temperature 46 °F 30 °F 21 °F (2008)
Degree Days  
Heating Degree Days 12    
Growing Degree Days 2 (Base 50)    
Moisture  
Dew Point 51 °F    
Average Humidity 93    
Maximum Humidity 100    
Minimum Humidity 77    
Precipitation  
Precipitation 0.00 in - - ()
Sea Level Pressure  
Sea Level Pressure 29.73 in    
Wind  
Wind Speed 8 mph (SW)    
Max Wind Speed 13 mph    
Max Gust Speed -    
Visibility 9 miles    
Events Fog    
Averages and records for this station are not official NWS values.
T = Trace of Precipitation, MM = Missing Value Source: NWS Daily Summary

Daily Weather History Graph

Daily Weather History Graph

Search for Another Location

Airport or City:

Trip Planner

Search our weather history database for the weather conditions in past years. The results will help you decide how hot, cold, wet, or windy it might be!

Date:

Astronomy

Dec. 16, 2012 Rise Set
Actual Time 7:07 AM CST 4:49 PM CST
Civil Twilight 6:39 AM CST 5:17 PM CST
Nautical Twilight 6:06 AM CST 5:50 PM CST
Astronomical Twilight 5:35 AM CST 6:21 PM CST
Moon 9:46 AM CST (12/16) 8:57 PM CST (12/16)
Length of Visible Light 10h 38m
Length of Day
9h 41m
Waxing Crescent, 16% of the Moon is Illuminated
Dec 16
Waxing Crescent
Dec 19
First Quarter
Dec 28
Full
Jan 4
Last Quarter
Jan 11
New

Hourly Weather History & Observations

Time (CST) Temp. Windchill Dew Point Humidity Pressure Visibility Wind Dir Wind Speed Gust Speed Precip Events Conditions
12:15 AM 59.0 °F - 59.0 °F 100% 29.77 in 7.0 mi SW 9.2 mph - N/A   Unknown
12:35 AM 57.2 °F - 57.2 °F 100% 29.77 in 5.0 mi SW 10.4 mph - N/A   Mist
12:55 AM 57.2 °F - 57.2 °F 100% 29.76 in 5.0 mi SW 9.2 mph - N/A   Mist
1:15 AM 57.2 °F - 57.2 °F 100% 29.76 in 4.0 mi SW 9.2 mph - N/A   Mist
1:35 AM 55.4 °F - 55.4 °F 100% 29.77 in 5.0 mi SW 9.2 mph - N/A   Mist
1:55 AM 57.2 °F - 57.2 °F 100% 29.77 in 8.0 mi SW 10.4 mph - N/A   Unknown
2:15 AM 55.4 °F - 55.4 °F 100% 29.76 in 10.0 mi SW 9.2 mph - N/A   Unknown
2:35 AM 57.2 °F - 55.4 °F 94% 29.77 in 10.0 mi SW 12.7 mph - N/A   Unknown
2:55 AM 55.4 °F - 55.4 °F 100% 29.76 in 10.0 mi SW 12.7 mph - N/A   Unknown
3:15 AM 55.4 °F - 53.6 °F 94% 29.77 in 10.0 mi SW 11.5 mph - N/A   Unknown
3:55 AM 55.4 °F - 51.8 °F 88% 29.77 in 10.0 mi SW 9.2 mph - N/A   Unknown
4:15 AM 53.6 °F - 51.8 °F 94% 29.77 in 10.0 mi SW 10.4 mph - N/A   Unknown
4:35 AM 53.6 °F - 50.0 °F 88% 29.76 in 10.0 mi SW 8.1 mph - N/A   Unknown
4:55 AM 51.8 °F - 50.0 °F 94% 29.76 in 10.0 mi WNW 4.6 mph - N/A   Unknown
5:15 AM 50.0 °F - 50.0 °F 100% 29.77 in 10.0 mi West 3.5 mph - N/A   Unknown
5:35 AM 50.0 °F - 50.0 °F 100% 29.77 in 10.0 mi West 3.5 mph - N/A   Unknown
5:55 AM 50.0 °F - 50.0 °F 100% 29.77 in 10.0 mi SW 3.5 mph - N/A   Unknown
6:15 AM 50.0 °F - 50.0 °F 100% 29.78 in 10.0 mi SSE 3.5 mph - N/A   Unknown
6:35 AM 48.2 °F - 48.2 °F 100% 29.78 in 8.0 mi Calm Calm - N/A   Unknown
6:55 AM 50.0 °F - 50.0 °F 100% 29.78 in 10.0 mi SSW 3.5 mph - N/A   Unknown
7:35 AM 50.0 °F - 50.0 °F 100% 29.79 in 10.0 mi SSW 5.8 mph - N/A   Unknown
7:55 AM 50.0 °F - 50.0 °F 100% 29.79 in 10.0 mi SW 6.9 mph - N/A   Unknown
8:15 AM 50.0 °F - 50.0 °F 100% 29.78 in 10.0 mi West 3.5 mph - N/A   Unknown
8:55 AM 53.6 °F - 50.0 °F 88% 29.77 in 10.0 mi SSW 9.2 mph - N/A   Unknown
9:15 AM 55.4 °F - 51.8 °F 88% 29.77 in 10.0 mi SSW 6.9 mph - N/A   Unknown
9:35 AM 55.4 °F - 51.8 °F 88% 29.77 in 10.0 mi SW 3.5 mph - N/A   Unknown
9:55 AM 55.4 °F - 51.8 °F 88% 29.76 in 10.0 mi SW 4.6 mph - N/A   Unknown
10:15 AM 55.4 °F - 51.8 °F 88% 29.76 in 10.0 mi SW 4.6 mph - N/A   Unknown
10:35 AM 55.4 °F - 51.8 °F 88% 29.75 in 10.0 mi SW 4.6 mph - N/A   Unknown
10:55 AM 55.4 °F - 51.8 °F 88% 29.74 in 10.0 mi SW 4.6 mph - N/A   Unknown
11:15 AM 55.4 °F - 53.6 °F 94% 29.75 in 10.0 mi SSW 4.6 mph - N/A   Unknown
11:35 AM 55.4 °F - 53.6 °F 94% 29.75 in 10.0 mi South 6.9 mph - N/A   Unknown
11:55 AM 55.4 °F - 51.8 °F 88% 29.74 in 10.0 mi South 6.9 mph - N/A   Unknown
12:15 PM 55.4 °F - 51.8 °F 88% 29.73 in 10.0 mi SSW 11.5 mph - N/A   Unknown
12:35 PM 57.2 °F - 50.0 °F 77% 29.70 in 10.0 mi South 10.4 mph - N/A   Unknown
12:55 PM 57.2 °F - 50.0 °F 77% 29.70 in 10.0 mi South 12.7 mph - N/A   Unknown
1:15 PM 57.2 °F - 50.0 °F 77% 29.69 in 10.0 mi South 9.2 mph - N/A   Unknown
1:35 PM 57.2 °F - 50.0 °F 77% 29.68 in 10.0 mi SSW 11.5 mph - N/A   Unknown
1:55 PM 57.2 °F - 50.0 °F 77% 29.67 in 10.0 mi SSW 11.5 mph - N/A   Unknown
2:15 PM 57.2 °F - 50.0 °F 77% 29.67 in 10.0 mi SSW 10.4 mph - N/A   Unknown
2:35 PM 57.2 °F - 50.0 °F 77% 29.67 in 10.0 mi SSW 12.7 mph - N/A   Unknown
2:55 PM 57.2 °F - 50.0 °F 77% 29.67 in 10.0 mi SSW 11.5 mph - N/A   Unknown
3:15 PM 57.2 °F - 51.8 °F 82% 29.67 in 10.0 mi SSW 11.5 mph - N/A   Unknown
3:35 PM 57.2 °F - 51.8 °F 82% 29.68 in 10.0 mi SW 10.4 mph - N/A   Unknown
3:55 PM 55.4 °F - 53.6 °F 94% 29.69 in 10.0 mi SW 10.4 mph - N/A   Unknown
4:15 PM 55.4 °F - 53.6 °F 94% 29.68 in 10.0 mi SW 9.2 mph - N/A   Unknown
4:35 PM 55.4 °F - 53.6 °F 94% 29.69 in 10.0 mi SSW 9.2 mph - N/A   Unknown
4:55 PM 55.4 °F - 51.8 °F 88% 29.69 in 10.0 mi SW 8.1 mph - N/A   Unknown
5:15 PM 53.6 °F - 50.0 °F 88% 29.69 in 10.0 mi SW 9.2 mph - N/A   Unknown
5:35 PM 53.6 °F - 50.0 °F 88% 29.69 in 10.0 mi SSW 9.2 mph - N/A   Unknown
5:55 PM 51.8 °F - 50.0 °F 94% 29.70 in 10.0 mi SSW 9.2 mph - N/A   Unknown
6:15 PM 50.0 °F - 50.0 °F 100% 29.70 in 10.0 mi SW 9.2 mph - N/A   Unknown
6:35 PM 50.0 °F - 48.2 °F 94% 29.70 in 10.0 mi SSW 8.1 mph - N/A   Unknown
6:55 PM 50.0 °F - 50.0 °F 100% 29.71 in 10.0 mi SSW 9.2 mph - N/A   Unknown
7:15 PM 50.0 °F - 50.0 °F 100% 29.71 in 10.0 mi SSW 9.2 mph - N/A   Unknown
7:35 PM 50.0 °F - 50.0 °F 100% 29.71 in 10.0 mi SSW 8.1 mph - N/A   Unknown
8:15 PM 50.0 °F - 50.0 °F 100% 29.72 in 10.0 mi SSW 8.1 mph - N/A   Unknown
8:35 PM 50.0 °F - 50.0 °F 100% 29.72 in 10.0 mi SW 6.9 mph - N/A   Unknown
8:55 PM 48.2 °F - 48.2 °F 100% 29.72 in 7.0 mi WNW 3.5 mph - N/A   Unknown
9:15 PM 48.2 °F - 48.2 °F 100% 29.72 in 5.0 mi West 3.5 mph - N/A   Mist
9:35 PM 48.2 °F - 48.2 °F 100% 29.72 in 4.0 mi West 3.5 mph - N/A   Mist
9:55 PM 48.2 °F - 48.2 °F 100% 29.72 in 0.2 mi WSW 3.5 mph - N/A Fog Fog
10:15 PM 46.4 °F 45.2 °F 46.4 °F 100% 29.72 in 0.2 mi WSW 3.5 mph - N/A Fog Fog
10:35 PM 48.2 °F - 48.2 °F 100% 29.72 in 0.5 mi WSW 3.5 mph - N/A Fog Fog
10:55 PM 48.2 °F - 48.2 °F 100% 29.72 in 3.0 mi SW 5.8 mph - N/A   Mist
11:35 PM 50.0 °F - 50.0 °F 100% 29.72 in 5.0 mi SSW 5.8 mph - N/A   Mist